Probability
0 0 0 0 0 0 0 0 0 0 0 0 0 0 0 0 0 0 0 0 0 0 0 0 0 0 0 0 0 0 0 0 0 0 0 0 0 0 0 0 0 0 0 0
0 0 0 0 0 0 0 0 0 0 0 0 0 0 0 0 0 0 0 0 0 0 0 0 0 0 0 0 0 0 0 0 0 0 0 0 0 0 0 0 0 0 0 0
0 0 0 0 0 0 0 0 0 0 0 0 0 0 0 0 0 0 0 0 0 0 0 0 0 0 0 0 0 0 0 0 0 0 0 0 0 0 0 0 0 0 0 0
0 0 0 0 0 0 0 0 0 0 0 0 0 0 0 0 0 0 0 0 0 0 0 0 0 0 0 0 0 0 0 0 0 0 0 0 0 0 0 0 0 0 0 0
0 0 0 0 0 0 0 0 0 0 0 0 0 0 0 0 0 0 0 0 0 0 0 0 0 0 0 0 0 0 0 0 0 0 0 0 0 0 0 0 0 0 0 0
0 0 0 0 0 0 0 0 0 0 0 0 0 0 0 0 0 0 0 0 0 0 0 0 0 0 0 0 0 0 0 0 0 0 0 0 0 0 0 0 0 0 0 0
0 0 0 0 0 0 0 0 0 0 0 0 0 0 0 0 0 0 0 0 0 0 0 0 0 0 0 0 0 0 0 0 0 0 0 0 0 0 0 0 0 0 0 0
0 0 0 0 0 0 0 0 0 0 0 0 0 0 0 0 0 0 0 0 0 0 0 0 0 0 0 0 0 0 0 0 0 0 0 0 0 0 0 0 0 0 0 0
0 0 0 0 0 0 0 0 0 0 0 0 0 0 0 0 0 0 0 0 0 0 0 0 0 0 0 0 0 0 0 0 0 0 0 0 0 0 0 0 0 0 0 0
0 0 0 0 0 0 0 0 0 0 0 0 0 0 0 0 0 0 0 0 0 0 0 0 0 0 0 0 0 0 0 0 0 0 0 0 0 0 0 0 0 0 0 0
0 0 0 0 0 0 0 0 0 0 0 0 0 0 0 0 0 0 0 0 0 0 0 0 0 0 0 0 0 0 0 0 0 0 0 0 0 0 0 0 0 0 0 0
0 0 0 0 0 0 0 0 0 0 0 0 0 0 0 0 0 0 0 0 0 0 0 0 0 0 0 0 0 0 0 0 0 0 0 0 0 0 0 0 0 0 0 0
0 0 0 0 0 0 0 0 0 0 0 0 0 0 0 0 0 0 0 0 0 0 0 0 0 0 0 0 0 0 0 0 0 0 0 0 0 0 0 0 0 0 0 0
0 0 0 0 0 0 0 0 0 0 0 0 0 0 0 0 0 0 0 0 0 0 0 0 0 0 0 0 0 0 0 0 0 0 0 0 0 0 0 0 0 0 0 0
0 0 0 0 0 0 0 0 0 0 0 0 0 0 0 0 0 0 0 0 0 0 0 0 0 0 0 0 0 0 0 0 0 0 0 0 0 0 0 0 0 0 0 0
0 0 0 0 0 0 0 0 0 0 0 0 0 0 0 0 0 0 0 0 0 0 0 0 0 0 0 0 0 0 0 0 0 0 0 0 0 0 0 0 0 0 0 0
0 0 0 0 0 0 0 0 0 0 0 0 0 0 0 0 0 0 0 0 0 0 0 0 0 0 0 0 0 0 0 0 0 0 0 0 0 0 0 0 0 0 0 0
0 0 0 0 0 0 0 0 0 0 0 0 0 0 0 0 0 0 0 0 0 0 0 0 0 0 0 0 0 0 0 0 0 0 0 0 0 0 0 0 0 0 0 0
0 0 0 0 0 0 0 0 0 0 0 0 0 0 0 0 0 0 0 0 0 0 0 0 0 0 0 0 0 0 0 0 0 0 0 0 0 0 0 0 0 0 0 0
0 0 0 0 0 0 0 0 0 0 0 0 0 0 0 0 0 0 0 0 0 0 0 0 0 0 0 0 0 0 0 0 0 0 0 0 0 0 0 0 0 0 0 0
0 0 0 0 0 0 0 0 0 0 0 0 0 0 0 0 0 0 0 0 0 0 0 0 0 0 0 0 0 0 0 0 0 0 0 0 0 0 0 0 0 0 0 0
0 0 0 0 0 0 0 0 0 0 0 0 0 0 0 0 0 0 0 0 0 0 0 0 0 0 0 0 0 0 0 0 0 0 0 0 0 0 0 0 0 0 0 0
0 0 0 0 0 0 0 0 0 0 0 0 0 0 0 0 0 0 0 0 0 0 0 0 0 0 0 0 0 0 0 0 0 0 0 0 0 0 0 0 0 0 0 0
0 0 0 0 0 0 0 0 0 0 0 0 0 0 0 0 0 0 0 0 0 0 0 0 0 0 0 0 0 0 0 0 0 0 0 0 0 0 0 0 0 0 0 0
0 0 0 0 0 0 0 0 0 0 0 0 0 0 0 0 0 0 0 0 0 0 0 0 0 0 0 0 0 0 0 0 0 0 0 0 0 0 0 0 0 0 0 0
0 0 0 0 0 0 0 0 0 0 0 0 0 0 0 0 0 0 0 0 0 0 0 0 0 0 0 0 0 0 0 0 0 0 0 0 0 0 0 0 0 0 0 0
Wind_Speed
11 14 21 25 26 23 20 21 22 20 15 18 23 25 22 18 17 19 20 19 19 19 19 17 17 18 18 18 19 20 20 19 16 13 12 12 12 11 11 11 13 14 13 14
11 21 26 23 22 23 23 23 23 17 13 16 20 24 22 21 21 20 21 20 20 19 18 16 16 17 19 20 21 21 21 21 20 15 14 12 12 10 10 9 12 14 14 14
21 18 19 22 23 23 25 25 23 17 11 14 14 21 23 22 22 21 21 21 20 20 20 19 18 19 19 20 22 19 22 22 22 19 13 10 9 8 9 11 12 15 16 15
18 20 18 21 24 24 23 23 21 17 14 12 15 15 20 21 21 22 22 21 22 20 19 18 17 18 20 20 20 21 22 22 22 20 17 18 14 14 16 13 12 14 16 16
13 14 18 23 24 23 20 16 18 18 17 16 16 16 16 17 21 23 23 23 22 20 19 18 17 17 18 18 18 19 21 22 22 22 21 20 17 15 12 12 15 15 14 16
17 14 14 17 18 19 13 12 12 13 12 19 23 20 17 17 22 21 22 22 21 20 18 18 16 15 15 15 16 17 20 21 22 22 22 22 21 18 16 16 15 13 11 12
12 15 14 13 13 14 15 12 9 12 14 16 18 20 18 15 18 20 19 19 18 18 18 17 16 16 15 16 17 18 20 21 22 23 22 23 22 20 19 18 16 14 12 12
9 10 12 12 16 13 20 20 13 11 13 13 15 19 16 17 16 17 17 16 16 16 16 16 16 15 15 16 17 18 20 20 21 22 22 21 21 15 14 17 14 15 12 13
6 8 8 11 13 16 16 19 16 10 9 11 12 14 15 13 16 17 17 17 17 17 16 15 15 14 14 15 17 18 19 19 20 21 21 20 20 18 16 16 15 12 12 11
5 8 8 7 8 14 15 12 10 10 10 13 13 17 14 15 18 18 19 19 18 15 15 14 13 13 12 12 14 16 17 18 19 19 18 15 18 18 16 14 15 14 14 13
4 6 6 6 10 11 12 14 10 9 8 10 12 12 11 15 17 18 18 17 16 15 13 12 11 11 11 11 12 14 15 16 16 17 17 17 16 16 16 14 15 14 13 13
4 5 7 9 8 8 10 12 12 10 9 10 9 7 4 10 10 11 13 13 13 12 11 10 10 10 10 11 12 13 13 14 15 15 15 16 15 15 15 14 14 14 13 13
3 4 5 4 4 5 6 9 11 12 9 10 13 10 2 2 4 6 8 9 9 9 9 9 9 10 10 10 11 11 12 13 13 13 14 14 15 15 15 14 13 13 13 12
6 6 7 8 6 6 10 11 12 12 11 12 17 15 8 6 5 5 5 6 6 7 8 9 9 9 9 9 10 10 11 12 12 13 14 14 15 14 14 13 13 13 13 12
3 7 9 12 13 13 15 16 15 17 17 16 17 17 13 9 7 6 5 5 5 7 8 9 9 9 9 9 9 9 10 11 12 13 13 13 13 12 12 12 12 12 11 11
3 7 9 12 11 12 16 18 19 20 21 21 18 19 13 9 7 6 5 5 6 7 8 8 9 9 9 10 10 10 10 11 12 12 12 12 12 12 12 12 12 12 11 11
5 6 6 9 9 9 14 16 19 19 21 21 20 16 9 10 10 9 7 7 7 7 7 7 8 9 10 10 10 11 11 11 12 12 12 12 12 12 12 12 12 12 12 11
10 9 6 6 7 11 7 7 14 17 18 16 16 12 12 13 12 11 8 7 7 6 6 7 8 8 8 9 10 10 11 11 11 12 12 12 12 12 12 12 12 12 10 11
16 11 7 6 8 11 9 8 12 14 15 13 15 13 11 10 10 12 10 8 8 8 7 7 7 7 9 10 11 12 12 11 12 12 12 13 13 13 13 13 12 11 10 10
12 13 9 7 8 10 7 5 7 10 13 9 11 12 10 8 11 11 9 9 10 8 6 5 5 7 9 11 12 13 13 13 13 12 12 12 13 13 13 13 12 10 9 9
6 9 13 12 10 10 7 5 4 10 7 5 9 10 9 11 13 10 9 10 10 8 6 5 7 8 10 12 13 13 13 13 12 12 12 12 12 13 13 12 10 10 9 9
7 7 10 10 12 10 3 2 6 6 7 7 8 9 11 14 14 11 10 10 9 7 6 6 7 7 8 12 13 13 13 11 12 12 12 12 12 11 10 12 11 11 11 10
9 8 5 8 10 8 6 7 9 10 11 11 10 11 12 13 14 14 12 11 10 8 7 7 7 7 8 11 13 13 12 13 14 14 13 12 12 11 11 12 12 11 10 8
8 8 9 11 13 14 14 14 13 13 14 14 13 12 11 13 13 13 11 10 9 8 7 6 8 8 9 10 11 11 13 14 15 15 13 12 12 11 11 9 9 9 9 8
11 8 11 16 16 16 16 15 15 16 16 15 14 13 13 13 13 12 11 10 9 7 7 8 9 10 10 10 10 11 14 16 15 14 13 12 11 11 10 8 6 7 6 7
14 15 16 16 15 14 17 16 18 18 18 17 16 16 14 13 13 11 10 9 8 8 8 8 10 10 10 10 11 13 14 16 17 14 13 11 10 10 9 9 8 8 7 9
Wind_Direction
205 213 216 214 216 228 232 231 232 233 223 219 229 236 235 229 227 232 232 228 225 224 223 215 208 203 200 199 197 195 194 193 189 189 190 191 195 197 198 199 199 198 198 197
218 227 229 224 223 227 229 233 236 238 230 228 238 241 240 235 232 233 234 231 228 227 223 213 208 202 200 199 198 197 197 193 192 194 194 197 196 199 200 197 202 202 201 200
224 233 231 227 224 225 227 229 231 231 226 230 245 248 240 236 234 235 236 235 232 228 226 217 208 204 201 201 199 198 197 196 195 194 191 188 189 191 195 199 201 203 202 201
235 239 233 226 223 222 230 227 231 231 226 226 221 248 236 228 227 228 229 229 230 227 227 222 213 206 203 203 200 200 198 197 195 192 192 189 192 196 199 198 199 200 202 203
233 229 228 227 225 223 231 229 228 229 233 240 227 243 245 222 226 225 224 225 226 225 223 221 215 210 205 202 199 199 199 199 196 194 195 196 201 204 199 196 199 199 200 203
248 245 234 233 231 226 224 222 229 232 234 238 226 229 247 221 224 224 223 223 223 222 221 221 217 211 207 200 198 198 199 199 197 196 198 200 203 202 197 196 195 196 196 199
246 239 230 228 227 217 203 198 198 204 214 231 219 225 240 232 225 226 224 221 219 218 217 216 214 210 206 199 197 197 198 199 197 197 199 202 205 203 203 198 197 193 194 196
240 238 213 212 217 214 207 205 212 209 214 221 213 227 235 230 227 229 231 228 222 218 214 213 211 209 206 201 197 196 198 199 197 198 200 202 203 203 205 204 198 197 197 197
252 251 226 218 219 212 209 212 226 246 242 232 217 230 239 230 227 225 225 225 222 218 214 213 211 208 205 200 197 197 196 198 197 197 199 201 201 202 203 201 200 199 199 195
259 264 245 223 219 222 220 208 205 214 216 226 225 227 224 208 216 217 219 221 220 217 215 213 211 207 203 199 195 195 196 197 196 195 197 198 199 201 201 198 198 198 196 192
262 258 250 220 212 207 203 206 213 211 231 232 229 230 220 217 213 213 214 214 214 210 209 206 203 201 198 192 188 190 193 194 194 195 195 196 198 198 198 198 197 196 194 190
258 263 254 243 237 225 212 205 203 208 214 230 241 240 181 219 221 220 217 213 213 210 207 202 196 191 189 188 187 187 188 190 191 191 191 193 194 193 195 195 194 192 191 189
270 260 272 239 196 203 223 211 214 224 226 226 227 232 181 216 225 228 225 217 210 205 200 195 190 188 185 183 182 183 185 186 185 184 186 187 189 190 192 191 188 187 186 185
283 243 243 257 271 263 246 237 225 219 221 229 231 237 235 246 246 237 231 225 214 202 191 188 189 188 183 180 178 178 179 178 177 178 182 185 186 187 186 184 182 181 181 180
263 260 260 272 272 262 251 240 230 226 224 228 235 240 243 251 254 248 233 215 205 196 192 191 189 184 178 175 174 173 171 172 172 175 179 181 179 177 176 175 174 174 174 175
258 262 271 272 271 262 257 242 233 231 231 235 243 246 249 256 264 259 236 212 212 204 199 196 191 185 183 179 174 170 169 169 171 173 174 171 171 169 170 169 168 167 167 167
239 244 259 266 277 275 253 233 225 223 226 229 235 240 244 244 242 245 235 219 220 217 209 201 198 195 189 182 175 173 168 165 168 168 167 167 167 167 167 164 165 166 166 164
234 235 245 261 261 239 246 234 230 233 233 234 243 252 243 247 250 251 242 240 240 232 224 215 206 200 189 176 170 164 161 164 165 165 166 166 166 165 164 164 167 166 164 164
221 222 231 237 246 260 265 248 229 226 234 234 241 247 251 256 253 246 240 254 252 240 235 226 211 198 181 173 165 159 162 165 166 168 168 168 166 164 164 166 166 161 159 160
213 213 224 228 238 242 253 254 248 228 244 238 240 245 253 244 240 243 259 263 262 257 244 228 197 187 178 171 163 163 166 169 173 171 168 165 165 165 166 165 159 155 155 154
200 207 219 230 242 256 281 291 207 208 243 266 246 247 246 237 244 268 269 262 258 255 242 214 192 188 182 169 166 169 170 176 170 161 159 161 164 164 162 157 152 150 147 145
228 227 218 221 235 245 289 218 210 262 301 303 280 262 254 253 259 270 265 260 254 249 233 210 195 189 178 171 171 172 175 166 155 153 154 158 159 154 154 150 148 148 146 145
232 233 243 235 248 284 281 265 278 293 291 296 293 285 271 262 259 262 263 259 250 239 225 211 197 183 180 178 178 175 166 155 153 152 153 153 151 151 153 152 150 149 151 151
246 247 251 259 261 272 276 280 283 284 289 296 295 290 280 269 267 266 262 256 251 243 224 207 192 185 182 182 182 172 156 155 153 152 151 151 149 148 148 148 150 153 158 157
255 255 252 257 269 277 273 273 281 288 289 291 292 287 280 275 272 266 260 252 246 241 224 207 199 192 185 176 172 163 158 156 152 150 148 149 148 146 144 141 143 152 156 162
244 245 250 258 265 271 279 285 285 285 285 285 286 286 282 273 270 266 259 251 241 231 217 205 200 191 180 172 167 165 163 159 153 150 151 151 148 145 141 135 114 85 109 119